This is the latest recevied weather packets stored in our database for station/object K4AGR-13. If no packets are shown the sender has not sent any weather packets the latest 10 day(s).
| Time | Temp. | Humidity | Pressure | Rain* | Wind** | Luminosity | Snow |
|---|---|---|---|---|---|---|---|
| 1777770609 | 17.78° C | 48% | 1015.1 hPa | 0 mm | - | 0 W/m² | - |
| 1777770305 | 17.78° C | 47% | 1014.9 hPa | 0 mm | - | 0 W/m² | - |
| 1777770003 | 17.78° C | 47% | 1014.8 hPa | 0 mm | - | 0 W/m² | - |
| 1777769699 | 17.78° C | 47% | 1014.6 hPa | 0 mm | - | 0 W/m² | - |
| 1777769396 | 18.33° C | 46% | 1014.5 hPa | 0 mm | - | 0 W/m² | - |
| 1777769093 | 18.33° C | 46% | 1014.5 hPa | 0 mm | - | 0 W/m² | - |
| 1777768791 | 18.33° C | 46% | 1014.1 hPa | 0 mm | - | 0 W/m² | - |
| 1777768487 | 18.33° C | 46% | 1013.9 hPa | 0 mm | - | 1 W/m² | - |
| 1777768184 | 18.89° C | 45% | 1013.9 hPa | 0 mm | - | 2 W/m² | - |
| 1777767881 | 18.89° C | 44% | 1013.7 hPa | 0 mm | - | 3 W/m² | - |
| 1777767577 | 19.44° C | 43% | 1013.6 hPa | 0 mm | - | 6 W/m² | - |
| 1777767274 | 19.44° C | 43% | 1013.7 hPa | 0 mm | - | 10 W/m² | - |
| 1777766972 | 20° C | 42% | 1013.4 hPa | 0 mm | - | 15 W/m² | - |
| 1777766669 | 20° C | 42% | 1013.3 hPa | 0 mm | - | 19 W/m² | - |
| 1777766366 | 20° C | 48% | 1013.5 hPa | 0 mm | - | 24 W/m² | - |
| 1777766063 | 20.56° C | 49% | 1013.3 hPa | 0 mm | - | 29 W/m² | - |
| 1777765760 | 20.56° C | 49% | 1013.1 hPa | 0 mm | - | 33 W/m² | - |
| 1777765457 | 20.56° C | 49% | 1012.7 hPa | 0 mm | - | 38 W/m² | - |
| 1777765154 | 20.56° C | 50% | 1012.7 hPa | 0 mm | - | 42 W/m² | - |
| 1777764849 | 21.11° C | 49% | 1012.6 hPa | 0 mm | - | 46 W/m² | - |
| 1777764547 | 21.11° C | 48% | 1012.6 hPa | 0 mm | - | 73 W/m² | - |
| 1777764243 | 21.67° C | 48% | 1012.6 hPa | 0 mm | - | 87 W/m² | - |
| 1777763940 | 21.67° C | 48% | 1012.5 hPa | 0 mm | - | 102 W/m² | - |
| 1777763637 | 21.67° C | 50% | 1012.5 hPa | 0 mm | - | 118 W/m² | - |
| 1777763335 | 21.67° C | 48% | 1012.6 hPa | 0 mm | - | 133 W/m² | - |
* Rain latest hour (hover to see other rain measurements)
** Current wind speed in m/s (hover to see current wind gust speed)